Location: Garshuizen
(53.3675°N, 6.7248°E)
Time: 12:29:33
(UTC+00:00)

KORONAS-FOTON - Pass Details

Date: 15 May 2026
Orbit: 423 x 437 km, 82.4° (Epoch: 8 June)

Event Time Altitude Azimuth Distance (km) Brightness Sun altitude
Exits shadow 21:44:54 26° 130° (SE) 909 4.5 -14.2°
Maximum altitude 21:45:59 32° 93° (E) 775 4.4 -14.2°
Drops below altitude 10° 21:49:04 10° 28° (NNE) 1,569 6.8 -14.4°
Sets 21:51:15 0° 19° (NNE) 2,445 8.0 -14.6°
